Weather History for KAVL - November, 2013

Change the Weather History Date:

Saturday, November 16, 2013

  Actual Average Record
Temperature  
Mean Temperature 55 °F 47 °F  
Max Temperature 62 °F 59 °F 78 °F (1955)
Min Temperature 47 °F 36 °F 15 °F (1969)
Degree Days  
Heating Degree Days 10 18  
Month to date heating degree days 299 250  
Since 1 July heating degree days 550 585  
Cooling Degree Days 0 0  
Month to date cooling degree days 0 0  
Year to date cooling degree days 860 862  
Growing Degree Days 4 (Base 50)    
Moisture  
Dew Point 50 °F    
Average Humidity 84    
Maximum Humidity 100    
Minimum Humidity 67    
Precipitation  
Precipitation 0.01 in 0.13 in 1.01 in (2002)
Month to date precipitation 0.32 1.76  
Year to date precipitation 64.32 40.09  
Snow  
Snow 0.00 in 0.00 in 0.60 in (1889)
Month to date snowfall T 0.0  
Since 1 July snowfall T 0.0  
Since 1 September snowfall T 0.0  
Snow Depth 0.00 in    
Sea Level Pressure  
Sea Level Pressure 30.22 in    
Wind  
Wind Speed 3 mph (SSE)    
Max Wind Speed 10 mph    
Max Gust Speed 16 mph    
Visibility 6 miles    
Events Fog , Rain    
T = Trace of Precipitation, MM = Missing Value Source: NWS Daily Summary

Daily Weather History Graph

Daily Weather History Graph

Search for Another Location

Airport or City:

Trip Planner

Search our weather history database for the weather conditions in past years. The results will help you decide how hot, cold, wet, or windy it might be!

Date:

Astronomy

Nov. 16, 2013 Rise Set
Actual Time 7:06 AM EST 5:22 PM EST
Civil Twilight 6:39 AM EST 5:50 PM EST
Nautical Twilight 6:08 AM EST 6:20 PM EST
Astronomical Twilight 5:38 AM EST 6:51 PM EST
Moon 4:56 PM EST (11/16) 6:03 AM EST (11/16)
Length of Visible Light 11h 10m
Length of Day
10h 16m
Waxing Gibbous, 99% of the Moon is Illuminated
Nov 16
Waxing Gibbous
Nov 17
Full
Nov 25
Last Quarter
Dec 2
New
Dec 9
First Quarter

Hourly Weather History & Observations

Time (EST) Temp. Dew Point Humidity Pressure Visibility Wind Dir Wind Speed Gust Speed Precip Events Conditions
12:33 AM 48.2 °F 48.2 °F 100% 30.22 in 2.5 mi SE 3.5 mph - 0.01 in   Overcast
12:54 AM 48.9 °F 48.0 °F 97% 30.20 in 3.0 mi Calm Calm - 0.01 in   Overcast
1:04 AM 48.2 °F 46.4 °F 93% 30.21 in 2.5 mi SW 3.5 mph - N/A   Overcast
1:08 AM 48.2 °F 46.4 °F 93% 30.21 in 1.8 mi Calm Calm - N/A   Overcast
1:16 AM 48.2 °F 48.2 °F 100% 30.21 in 1.8 mi Calm Calm - 0.00 in Rain Light Rain
1:37 AM 48.2 °F 48.2 °F 100% 30.21 in 1.2 mi Calm Calm - 0.00 in Rain Light Rain
1:48 AM 48.2 °F 48.2 °F 100% 30.22 in 2.0 mi Calm Calm - 0.00 in Rain Light Rain
1:54 AM 48.9 °F 48.0 °F 97% 30.21 in 5.0 mi Calm Calm - 0.00 in   Overcast
2:03 AM 48.2 °F 48.2 °F 100% 30.22 in 5.0 mi Calm Calm - N/A   Overcast
2:25 AM 48.2 °F 46.4 °F 93% 30.21 in 1.8 mi SSE 3.5 mph - N/A   Overcast
2:39 AM 48.2 °F 48.2 °F 100% 30.21 in 2.5 mi Calm Calm - N/A   Overcast
2:49 AM 48.2 °F 48.2 °F 100% 30.21 in 6.0 mi Calm Calm - N/A   Overcast
2:54 AM 48.9 °F 48.0 °F 97% 30.20 in 5.0 mi Calm Calm - N/A   Overcast
3:04 AM 48.2 °F 48.2 °F 100% 30.21 in 2.0 mi Calm Calm - N/A   Overcast
3:28 AM 48.2 °F 48.2 °F 100% 30.21 in 3.0 mi Calm Calm - N/A   Overcast
3:54 AM 48.9 °F 48.0 °F 97% 30.19 in 4.0 mi Calm Calm - N/A   Overcast
4:05 AM 48.2 °F 48.2 °F 100% 30.20 in 5.0 mi Calm Calm - N/A   Overcast
4:33 AM 48.2 °F 48.2 °F 100% 30.21 in 4.0 mi Calm Calm - N/A   Overcast
4:54 AM 48.9 °F 48.0 °F 97% 30.19 in 3.0 mi Calm Calm - N/A   Overcast
5:54 AM 48.9 °F 48.9 °F 100% 30.19 in 2.5 mi Calm Calm - N/A   Overcast
6:06 AM 50.0 °F 48.2 °F 94% 30.20 in 3.0 mi Calm Calm - N/A   Overcast
6:22 AM 48.2 °F 48.2 °F 100% 30.21 in 2.0 mi Calm Calm - N/A   Overcast
6:32 AM 48.2 °F 48.2 °F 100% 30.21 in 2.5 mi Calm Calm - N/A   Overcast
6:39 AM 48.2 °F 48.2 °F 100% 30.22 in 3.0 mi SW 3.5 mph - N/A   Overcast
6:54 AM 50.0 °F 48.9 °F 96% 30.21 in 4.0 mi SSE 3.5 mph - N/A   Overcast
7:14 AM 50.0 °F 48.2 °F 94% 30.22 in 1.8 mi Calm Calm - N/A   Overcast
7:25 AM 50.0 °F 48.2 °F 94% 30.22 in 1.2 mi Calm Calm - N/A   Overcast
7:49 AM 50.0 °F 48.2 °F 94% 30.24 in 0.5 mi Calm Calm - N/A Fog Fog
7:54 AM 50.0 °F 48.9 °F 96% 30.23 in 0.2 mi Calm Calm - N/A Fog Fog
8:19 AM 50.0 °F 50.0 °F 100% 30.24 in 0.5 mi Calm Calm - N/A Fog Fog
8:38 AM 50.0 °F 50.0 °F 100% 30.25 in 0.8 mi Calm Calm - N/A   Mist
8:54 AM 50.0 °F 50.0 °F 100% 30.24 in 0.5 mi Calm Calm - N/A Fog Fog
9:14 AM 50.0 °F 50.0 °F 100% 30.26 in 1.5 mi Calm Calm - N/A   Overcast
9:25 AM 51.8 °F 50.0 °F 94% 30.26 in 2.0 mi Calm Calm - N/A   Overcast
9:34 AM 51.8 °F 50.0 °F 94% 30.26 in 4.0 mi Calm Calm - N/A   Overcast
9:39 AM 51.8 °F 50.0 °F 94% 30.26 in 2.0 mi Calm Calm - N/A   Overcast
9:54 AM 51.1 °F 50.0 °F 96% 30.25 in 2.0 mi Calm Calm - N/A   Overcast
10:01 AM 51.8 °F 51.8 °F 100% 30.27 in 6.0 mi Calm Calm - N/A   Overcast
10:19 AM 51.8 °F 50.0 °F 94% 30.27 in 2.0 mi Calm Calm - N/A   Overcast
10:33 AM 51.8 °F 50.0 °F 94% 30.28 in 2.0 mi SSE 4.6 mph - N/A   Overcast
10:44 AM 51.8 °F 50.0 °F 94% 30.28 in 10.0 mi SSE 4.6 mph - N/A   Overcast
10:54 AM 53.1 °F 50.0 °F 89% 30.26 in 10.0 mi SSE 3.5 mph - N/A   Overcast
11:13 AM 53.6 °F 51.8 °F 94% 30.28 in 10.0 mi South 3.5 mph - N/A   Overcast
11:47 AM 53.6 °F 51.8 °F 94% 30.26 in 10.0 mi Variable 5.8 mph - N/A   Overcast
11:54 AM 54.0 °F 51.1 °F 90% 30.24 in 10.0 mi SSE 3.5 mph - N/A   Overcast
12:54 PM 57.0 °F 51.1 °F 81% 30.21 in 7.0 mi SSE 4.6 mph - N/A   Overcast
1:02 PM 57.2 °F 51.8 °F 82% 30.23 in 10.0 mi South 5.8 mph - N/A   Overcast
1:54 PM 60.1 °F 52.0 °F 75% 30.17 in 10.0 mi SE 3.5 mph - N/A   Mostly Cloudy
2:07 PM 60.8 °F 51.8 °F 72% 30.19 in 10.0 mi Calm Calm - N/A   Partly Cloudy
2:50 PM 62.6 °F 51.8 °F 68% 30.18 in 10.0 mi Variable 4.6 mph - N/A   Mostly Cloudy
2:54 PM 62.1 °F 52.0 °F 70% 30.15 in 10.0 mi Variable 3.5 mph - N/A   Mostly Cloudy
3:06 PM 62.6 °F 51.8 °F 68% 30.18 in 10.0 mi East 3.5 mph - N/A   Overcast
3:54 PM 57.9 °F 52.0 °F 81% 30.17 in 10.0 mi SSE 9.2 mph - N/A   Overcast
4:04 PM 57.2 °F 51.8 °F 82% 30.19 in 10.0 mi ESE 8.1 mph - N/A   Overcast
4:54 PM 55.9 °F 51.1 °F 84% 30.18 in 10.0 mi ESE 5.8 mph - N/A   Overcast
5:39 PM 55.4 °F 51.8 °F 88% 30.21 in 10.0 mi SSE 8.1 mph - N/A   Overcast
5:54 PM 54.0 °F 51.1 °F 90% 30.20 in 10.0 mi SSE 6.9 mph - N/A   Overcast
6:39 PM 53.6 °F 51.8 °F 94% 30.22 in 10.0 mi SE 8.1 mph - N/A   Overcast
6:54 PM 54.0 °F 51.1 °F 90% 30.20 in 10.0 mi SSE 6.9 mph - N/A   Overcast
7:29 PM 53.6 °F 51.8 °F 94% 30.24 in 10.0 mi South 8.1 mph - N/A   Overcast
7:46 PM 53.6 °F 51.8 °F 94% 30.24 in 10.0 mi SSE 6.9 mph - N/A   Overcast
7:54 PM 54.0 °F 51.1 °F 90% 30.22 in 10.0 mi South 6.9 mph - N/A   Overcast
8:16 PM 53.6 °F 51.8 °F 94% 30.25 in 10.0 mi South 6.9 mph - N/A   Overcast
8:54 PM 54.0 °F 51.1 °F 90% 30.23 in 8.0 mi SE 4.6 mph - N/A   Overcast
9:54 PM 54.0 °F 51.1 °F 90% 30.21 in 9.0 mi SSE 6.9 mph - N/A   Overcast
10:46 PM 53.6 °F 51.8 °F 94% 30.23 in 8.0 mi SE 4.6 mph - N/A   Overcast
10:54 PM 53.1 °F 51.1 °F 93% 30.21 in 8.0 mi SE 3.5 mph - N/A   Overcast
11:24 PM 53.6 °F 51.8 °F 94% 30.23 in 7.0 mi SSE 5.8 mph - N/A   Overcast
11:54 PM 54.0 °F 51.1 °F 90% 30.20 in 7.0 mi SE 4.6 mph - N/A   Overcast